ASIASAT 8 (AMOS-7)

Last updated on Sun Jun 21 2026 00:03:06 GMT+0000 (Coordinated Universal Time)

1 40107U 14046A 26171.41291205 -.00000337 00000+0 00000+0 0 9990 2 40107 0.0253 67.9261 0001402 19.3197 75.3344 1.00272598102184
UTC large
Height (km)
Speed (km/s)
/
Latitude / Longitude
Inclination (degrees)
Orbital Period (minutes)
Azimuth
Elevation
Range (km)
Doppler Factor

Next 0 passes for location: London (51.5072 / 0.1276)

No passes found over London.
ASIASAT 8 (AMOS-7)